Weather History for Newark, NJ

Change the Weather History Date:

Friday, February 14, 2014

  Actual Average Record
Temperature  
Mean Temperature 34 °F 34 °F  
Max Temperature 40 °F 42 °F 65 °F (1946)
Min Temperature 28 °F 27 °F 0 °F (1979)
Degree Days  
Heating Degree Days 31 31  
Month to date heating degree days 515 445  
Since 1 July heating degree days 3413 3229  
Cooling Degree Days 0 0  
Month to date cooling degree days 0 0  
Year to date cooling degree days 0 0  
Moisture  
Dew Point 27 °F    
Average Humidity 73    
Maximum Humidity 92    
Minimum Humidity 54    
Precipitation  
Precipitation 0.22 in 0.10 in 1.19 in (1935)
Month to date precipitation 4.01 1.40  
Year to date precipitation 6.79 4.94  
Snow  
Snow 2.50 in 0.30 in 3.50 in (1978)
Month to date snowfall 25.4 4.7  
Since 1 July snowfall 55.6 18.4  
Snow Depth 18.00 in    
Sea Level Pressure  
Sea Level Pressure 29.35 in    
Wind  
Wind Speed 17 mph (West)    
Max Wind Speed 36 mph    
Max Gust Speed 45 mph    
Visibility 7 miles    
Events Fog , Snow    
T = Trace of Precipitation, MM = Missing Value Source: NWS Daily Summary

Daily Weather History Graph

Daily Weather History Graph

Search for Another Location

Airport:

Trip Planner

Search our weather history database for the weather conditions in past years. The results will help you decide how hot, cold, wet, or windy it might be!

Date:

Astronomy

Feb. 14, 2014 Rise Set
Actual Time 6:51 AM EST 5:30 PM EST
Civil Twilight 6:23 AM EST 5:58 PM EST
Nautical Twilight 5:51 AM EST 6:30 PM EST
Astronomical Twilight 5:19 AM EST 7:02 PM EST
Moon 5:32 PM EST (2/14) 6:17 AM EST (2/14)
Length of Visible Light 11h 34m
Length of Day
10h 38m
Full, 100% of the Moon is Illuminated
Feb 14
Full
Feb 14
Full
Feb 22
Last Quarter
Mar 1
New
Mar 8
First Quarter

Hourly Weather History & Observations

Time (EST) Temp. Windchill Dew Point Humidity Pressure Visibility Wind Dir Wind Speed Gust Speed Precip Events Conditions
12:05 AM 33.8 °F 24.8 °F 30.2 °F 87% 29.05 in 3.0 mi NW 12.7 mph - 0.00 in   Ice Pellets
12:22 AM 33.8 °F 23.9 °F 30.2 °F 87% 29.05 in 1.5 mi NW 15.0 mph - 0.02 in Snow Light Snow
12:29 AM 33.8 °F 23.5 °F 30.2 °F 87% 29.04 in 1.5 mi NW 16.1 mph 23.0 mph 0.03 in Snow Light Snow
12:51 AM 33.1 °F 22.2 °F 30.9 °F 92% 29.05 in 1.0 mi NNW 17.3 mph 24.2 mph 0.04 in Snow Light Snow
1:12 AM 33.8 °F 26.4 °F 32.0 °F 93% 29.06 in 0.8 mi WNW 9.2 mph - 0.02 in Snow Light Snow
1:24 AM 33.8 °F 24.8 °F 30.2 °F 87% 29.06 in 0.5 mi WNW 12.7 mph 18.4 mph 0.05 in Fog , Snow Snow
1:51 AM 32.0 °F 22.5 °F 30.0 °F 92% 29.08 in 0.5 mi WNW 12.7 mph - 0.06 in Snow Light Snow
2:03 AM 32.0 °F 22.5 °F 30.2 °F 93% 29.08 in 0.5 mi WNW 12.7 mph - 0.03 in Fog , Snow Snow
2:51 AM 32.0 °F 22.1 °F 30.9 °F 96% 29.08 in 1.0 mi WNW 13.8 mph - 0.09 in Snow Light Snow
3:51 AM 32.0 °F 20.8 °F 30.0 °F 92% 29.11 in 0.8 mi West 17.3 mph 25.3 mph 0.02 in Snow Light Snow
4:08 AM 32.0 °F 20.5 °F 30.2 °F 93% 29.12 in 0.5 mi West 18.4 mph - 0.01 in Fog , Snow Snow
4:51 AM 30.9 °F 18.4 °F 28.9 °F 92% 29.15 in 1.8 mi West 20.7 mph 26.5 mph 0.01 in Snow Light Snow
5:04 AM 32.0 °F 19.5 °F 28.4 °F 87% 29.16 in 4.0 mi West 21.9 mph 31.1 mph 0.00 in Snow Light Snow
5:21 AM 32.0 °F 19.8 °F 28.4 °F 87% 29.18 in 6.0 mi West 20.7 mph - 0.00 in   Overcast
5:51 AM 33.1 °F 21.9 °F 27.0 °F 78% 29.20 in 10.0 mi West 18.4 mph 25.3 mph 0.00 in   Overcast
6:51 AM 34.0 °F 22.7 °F 28.0 °F 79% 29.23 in 10.0 mi WSW 19.6 mph 29.9 mph N/A   Scattered Clouds
7:51 AM 34.0 °F 22.7 °F 27.0 °F 75% 29.27 in 10.0 mi West 19.6 mph 36.8 mph N/A   Scattered Clouds
8:51 AM 35.1 °F 23.3 °F 27.0 °F 72% 29.33 in 10.0 mi West 23.0 mph 32.2 mph N/A   Scattered Clouds
9:51 AM 36.0 °F 23.9 °F 26.1 °F 67% 29.37 in 10.0 mi WSW 25.3 mph 36.8 mph N/A   Scattered Clouds
10:51 AM 37.0 °F 25.6 °F 26.1 °F 65% 29.41 in 10.0 mi WSW 24.2 mph 43.7 mph N/A   Scattered Clouds
11:51 AM 37.9 °F 26.8 °F 23.0 °F 55% 29.45 in 10.0 mi WSW 24.2 mph 33.4 mph N/A   Partly Cloudy
12:51 PM 39.0 °F 26.4 °F 24.1 °F 55% 29.47 in 10.0 mi WSW 34.5 mph 44.9 mph N/A   Partly Cloudy
1:51 PM 39.0 °F 28.0 °F 24.1 °F 55% 29.50 in 10.0 mi West 25.3 mph 41.4 mph N/A   Scattered Clouds
2:51 PM 39.0 °F 28.3 °F 25.0 °F 57% 29.53 in 10.0 mi West 24.2 mph 39.1 mph N/A   Scattered Clouds
3:51 PM 39.0 °F 29.0 °F 25.0 °F 57% 29.57 in 10.0 mi West 20.7 mph 33.4 mph N/A   Scattered Clouds
4:51 PM 39.0 °F 29.0 °F 24.1 °F 55% 29.60 in 10.0 mi West 20.7 mph 27.6 mph N/A   Partly Cloudy
5:51 PM 37.9 °F 27.9 °F 24.1 °F 57% 29.64 in 10.0 mi West 19.6 mph 26.5 mph N/A   Scattered Clouds
6:51 PM 37.0 °F 29.8 °F 24.1 °F 59% 29.70 in 10.0 mi SW 10.4 mph - N/A   Scattered Clouds
7:51 PM 37.9 °F 33.5 °F 25.0 °F 60% 29.76 in 10.0 mi WSW 5.8 mph - N/A   Mostly Cloudy
8:51 PM 34.0 °F 28.8 °F 24.1 °F 67% 29.77 in 10.0 mi SSW 5.8 mph - N/A   Scattered Clouds
9:51 PM 35.1 °F 32.2 °F 24.1 °F 64% 29.78 in 10.0 mi SW 3.5 mph - N/A   Scattered Clouds
10:51 PM 33.1 °F 30.0 °F 23.0 °F 66% 29.78 in 10.0 mi SW 3.5 mph - N/A   Scattered Clouds
11:51 PM 30.9 °F 27.5 °F 21.9 °F 69% 29.78 in 10.0 mi West 3.5 mph - N/A   Scattered Clouds